K0NV Weather Reports


time (UTC)temp
C
wind
direction
speed
KPH
gust
KPH
rain 1hr
cm
rain 24hr
cm
rain mn
cm
humidity
%
barometer
mb
20260510203149 21 265 0.0 1.6 0.00 0.00 0.00 47 1020.5
20260510202643 21 272 0.0 1.6 0.00 0.00 0.00 49 1020.5
20260510202138 21 44 0.0 1.6 0.00 0.00 0.00 47 1020.6
20260510201636 21 352 0.0 1.6 0.00 0.00 0.00 48 1020.3
20260510201133 21 332 8.0 11.3 0.00 0.00 0.00 47 1020.7
20260510200629 21 50 4.8 8.0 0.00 0.00 0.00 48 1020.6
20260510200126 21 354 4.8 8.0 0.00 0.00 0.00 47 1020.7
20260510195623 21 32 6.4 8.0 0.00 0.00 0.00 47 1020.8
20260510195114 21 42 1.6 3.2 0.00 0.00 0.00 46 1020.7
20260510194614 21 180 3.2 8.0 0.00 0.00 0.00 48 1020.7
20260510194111 21 35 9.7 14.5 0.00 0.00 0.00 46 1020.7
20260510193611 21 351 1.6 3.2 0.00 0.00 0.00 48 1020.6
20260510193107 21 248 1.6 3.2 0.00 0.00 0.00 46 1020.7
20260510192602 22 63 4.8 4.8 0.00 0.00 0.00 47 1021.0
20260510192057 21 298 0.0 0.0 0.00 0.00 0.00 46 1020.9
20260510191554 21 259 3.2 3.2 0.00 0.00 0.00 46 1020.8
20260510191050 21 261 8.0 11.3 0.00 0.00 0.00 48 1020.7
20260510190542 21 309 1.6 4.8 0.00 0.00 0.00 45 1020.8
20260510190040 21 1 4.8 8.0 0.00 0.00 0.00 46 1021.0
20260510185536 21 275 3.2 4.8 0.00 0.00 0.00 47 1020.9
20260510185034 21 37 1.6 3.2 0.00 0.00 0.00 45 1020.8
20260510184531 21 48 6.4 11.3 0.00 0.00 0.00 47 1020.9
20260510184026 21 38 4.8 8.0 0.00 0.00 0.00 46 1020.8
20260510183522 21 40 3.2 4.8 0.00 0.00 0.00 47 1020.9
20260510183017 21 329 1.6 4.8 0.00 0.00 0.00 46 1020.9
20260510182514 21 36 4.8 8.0 0.00 0.00 0.00 48 1020.9
20260510182009 21 244 0.0 0.0 0.00 0.00 0.00 47 1020.8
20260510181508 21 307 1.6 3.2 0.00 0.00 0.00 49 1020.9
20260510181003 21 75 1.6 4.8 0.00 0.00 0.00 48 1020.7
20260510180501 21 296 4.8 8.0 0.00 0.00 0.00 49 1020.4
20260510175957 21 235 0.0 0.0 0.00 0.00 0.00 48 1020.7
20260510175453 20 256 3.2 4.8 0.00 0.00 0.00 49 1020.4
20260510174948 20 26 4.8 4.8 0.00 0.00 0.00 50 1020.6
20260510174447 20 210 0.0 0.0 0.00 0.00 0.00 51 1020.4
20260510173944 20 49 0.0 0.0 0.00 0.00 0.00 54 1020.4
20260510173440 20 45 9.7 14.5 0.00 0.00 0.00 51 1020.3
20260510172936 20 70 4.8 8.0 0.00 0.00 0.00 53 1020.5
20260510172432 20 35 4.8 4.8 0.00 0.00 0.00 54 1020.4
20260510171928 20 227 4.8 8.0 0.00 0.00 0.00 55 1020.3
20260510171426 20 42 6.4 8.0 0.00 0.00 0.00 55 1020.3
20260510170922 20 46 4.8 8.0 0.00 0.00 0.00 56 1020.4
20260510170419 19 38 4.8 8.0 0.00 0.00 0.00 57 1020.4
20260510165914 20 123 1.6 3.2 0.00 0.00 0.00 56 1020.3
20260510165410 19 319 1.6 1.6 0.00 0.00 0.00 59 1020.3
20260510164908 19 47 3.2 4.8 0.00 0.00 0.00 59 1020.5
20260510164404 19 24 6.4 8.0 0.00 0.00 0.00 57 1020.2
20260510163859 19 55 9.7 12.9 0.00 0.00 0.00 60 1020.2
20260510163355 20 45 8.0 11.3 0.00 0.00 0.00 59 1020.2
20260510162849 19 42 8.0 12.9 0.00 0.00 0.00 60 1020.1
20260510162347 18 89 1.6 1.6 0.00 0.00 0.00 61 1020.0
20260510161843 18 31 3.2 4.8 0.00 0.00 0.00 63 1020.1
20260510161339 18 22 1.6 3.2 0.00 0.00 0.00 63 1020.0
20260510160836 18 9 4.8 8.0 0.00 0.00 0.00 65 1019.9
20260510160332 18 188 4.8 8.0 0.00 0.00 0.00 65 1019.8
20260510155826 17 40 1.6 3.2 0.00 0.00 0.00 66 1019.8
20260510155318 18 28 4.8 8.0 0.00 0.00 0.00 65 1019.7
20260510154814 18 300 1.6 1.6 0.00 0.00 0.00 67 1019.6
20260510154310 18 65 3.2 4.8 0.00 0.00 0.00 66 1019.3
20260510153804 17 53 4.8 8.0 0.00 0.00 0.00 68 1019.7
20260510153301 18 19 4.8 8.0 0.00 0.00 0.00 68 1019.7
20260510152757 18 341 1.6 3.2 0.00 0.00 0.00 69 1019.5
20260510152254 17 240 0.0 0.0 0.00 0.00 0.00 69 1019.2
20260510151750 17 31 0.0 0.0 0.00 0.00 0.00 70 1019.5
20260510151249 17 4 1.6 3.2 0.00 0.00 0.00 71 1019.5
20260510150744 17 102 0.0 0.0 0.00 0.00 0.00 72 1019.3
20260510150240 17 36 1.6 1.6 0.00 0.00 0.00 72 1019.8
20260510145736 17 352 0.0 0.0 0.00 0.00 0.00 72 1019.8
20260510145233 17 92 0.0 0.0 0.00 0.00 0.00 73 1019.8
20260510144729 17 33 4.8 8.0 0.00 0.00 0.00 73 1019.9
20260510144227 17 33 6.4 9.7 0.00 0.00 0.00 73 1019.6
20260510143720 17 69 1.6 3.2 0.00 0.00 0.00 73 1019.6
20260510143217 17 19 3.2 4.8 0.00 0.00 0.00 72 1019.7
20260510142714 17 345 1.6 3.2 0.00 0.00 0.00 73 1019.9
20260510142210 18 59 0.0 1.6 0.00 0.00 0.00 73 1019.6
20260510141707 17 58 4.8 4.8 0.00 0.00 0.00 74 1019.5
20260510141206 17 73 0.0 1.6 0.00 0.00 0.00 74 1019.6
20260510140702 17 348 6.4 9.7 0.00 0.00 0.00 74 1019.3
20260510140202 17 30 8.0 9.7 0.00 0.00 0.00 75 1019.1
20260510135656 17 40 4.8 9.7 0.00 0.00 0.00 73 1019.0
20260510135153 17 9 0.0 0.0 0.00 0.00 0.00 73 1019.2
20260510134650 18 25 1.6 1.6 0.00 0.00 0.00 72 1019.1
20260510134147 17 348 6.4 11.3 0.00 0.00 0.00 72 1019.0
20260510133643 18 2 9.7 14.5 0.00 0.00 0.00 72 1018.8
20260510133139 18 20 11.3 14.5 0.00 0.00 0.00 72 1018.8
20260510132635 17 31 0.0 3.2 0.00 0.00 0.00 73 1018.7
20260510132133 17 17 3.2 8.0 0.00 0.00 0.00 74 1018.6
20260510131630 17 328 8.0 9.7 0.00 0.00 0.00 75 1018.4
20260510131127 17 43 3.2 8.0 0.00 0.00 0.00 78 1018.2
20260510130624 16 43 6.4 9.7 0.00 0.00 0.00 78 1018.4
20260510130121 16 31 1.6 3.2 0.00 0.00 0.00 79 1018.2
20260510125617 16 67 9.7 11.3 0.00 0.00 0.00 79 1018.2
20260510125114 16 40 1.6 3.2 0.00 0.00 0.00 79 1017.9
20260510124611 16 45 6.4 8.0 0.00 0.00 0.00 78 1018.2
20260510124108 16 34 4.8 11.3 0.00 0.00 0.00 79 1017.9
20260510123603 16 37 0.0 0.0 0.00 0.00 0.00 80 1017.7
20260510123059 15 26 1.6 1.6 0.00 0.00 0.00 82 1017.8
20260510122555 15 37 3.2 4.8 0.00 0.00 0.00 84 1017.6
20260510122051 15 31 1.6 3.2 0.00 0.00 0.00 84 1017.5
20260510121549 15 318 0.0 1.6 0.00 0.00 0.00 84 1017.7
20260510121046 15 21 1.6 3.2 0.00 0.00 0.00 83 1017.3
20260510120544 15 36 3.2 3.2 0.00 0.00 0.00 83 1017.4
20260510120038 15 44 0.0 0.0 0.00 0.00 0.00 84 1017.3
20260510115536 14 40 3.2 3.2 0.00 0.00 0.00 84 1017.3
20260510115033 14 48 0.0 0.0 0.00 0.00 0.00 84 1017.3
20260510114528 14 12 0.0 0.0 0.00 0.00 0.00 83 1017.1
20260510114025 15 19 0.0 0.0 0.00 0.00 0.00 83 1017.1
20260510113520 15 52 1.6 3.2 0.00 0.00 0.00 83 1017.0
20260510113018 15 19 3.2 3.2 0.00 0.00 0.00 82 1016.7
20260510112514 15 56 1.6 3.2 0.00 0.00 0.00 82 1016.2
20260510112011 14 31 3.2 4.8 0.00 0.00 0.00 82 1016.5
20260510111508 15 45 0.0 0.0 0.00 0.00 0.00 82 1016.6
20260510111003 15 303 0.0 0.0 0.00 0.00 0.00 81 1016.4
20260510110500 15 22 0.0 0.0 0.00 0.00 0.00 81 1016.1
20260510105956 15 310 0.0 0.0 0.00 0.00 0.00 81 1016.0
20260510105451 15 359 0.0 0.0 0.00 0.00 0.00 82 1016.0
20260510104946 15 332 0.0 0.0 0.00 0.00 0.00 82 1016.2
20260510104443 15 272 0.0 0.0 0.00 0.00 0.00 81 1015.9
20260510103939 15 296 0.0 0.0 0.00 0.00 0.00 82 1016.1
20260510103437 15 284 0.0 0.0 0.00 0.00 0.00 82 1015.7
20260510102932 15 288 0.0 0.0 0.00 0.00 0.00 81 1015.9
20260510102428 15 284 0.0 0.0 0.00 0.00 0.00 80 1016.0
20260510101925 16 264 0.0 0.0 0.00 0.00 0.00 77 1016.1
20260510101423 16 344 0.0 0.0 0.00 0.00 0.00 72 1015.9
20260510100921 16 332 0.0 0.0 0.00 0.00 0.00 75 1015.9
20260510100417 16 332 0.0 0.0 0.00 0.00 0.00 74 1015.8
20260510095913 16 34 0.0 0.0 0.00 0.00 0.00 70 1015.7
20260510095409 16 170 0.0 0.0 0.00 0.00 0.00 72 1015.7
20260510094908 16 155 0.0 0.0 0.00 0.00 0.00 71 1015.3
20260510094403 15 197 0.0 0.0 0.00 0.00 0.00 76 1015.5
20260510093900 15 262 0.0 0.0 0.00 0.00 0.00 75 1015.8
20260510093355 16 266 0.0 0.0 0.00 0.00 0.00 77 1015.7
20260510092852 15 270 0.0 0.0 0.00 0.00 0.00 75 1015.3
20260510092349 15 290 0.0 0.0 0.00 0.00 0.00 78 1015.3
20260510091844 15 278 0.0 0.0 0.00 0.00 0.00 80 1015.2
20260510091341 15 278 0.0 0.0 0.00 0.00 0.00 81 1015.1
20260510090838 15 278 0.0 0.0 0.00 0.00 0.00 80 1015.3
20260510090334 16 256 0.0 0.0 0.00 0.00 0.00 80 1015.2
20260510085830 16 264 0.0 0.0 0.00 0.00 0.00 78 1014.9
20260510085324 16 146 0.0 0.0 0.00 0.00 0.00 77 1015.2
20260510084820 16 131 0.0 0.0 0.00 0.00 0.00 77 1014.8
20260510084318 16 278 0.0 0.0 0.00 0.00 0.00 76 1015.0
20260510083814 16 268 0.0 0.0 0.00 0.00 0.00 74 1014.9
20260510083311 16 275 0.0 0.0 0.00 0.00 0.00 73 1015.1
20260510082807 16 270 0.0 0.0 0.00 0.00 0.00 73 1015.0
20260510082306 16 275 0.0 0.0 0.00 0.00 0.00 72 1014.9
20260510081803 16 256 0.0 0.0 0.00 0.00 0.00 74 1014.8
20260510081259 17 152 0.0 0.0 0.00 0.00 0.00 74 1014.6
20260510080755 16 115 0.0 0.0 0.00 0.00 0.00 73 1014.8
20260510080250 16 154 0.0 0.0 0.00 0.00 0.00 73 1014.8
20260510075747 17 288 0.0 0.0 0.00 0.00 0.00 72 1015.1
20260510075245 17 288 0.0 0.0 0.00 0.00 0.00 70 1015.4
20260510074741 17 310 0.0 0.0 0.00 0.00 0.00 67 1015.1
20260510074238 17 293 0.0 0.0 0.00 0.00 0.00 67 1014.9
20260510073734 17 93 0.0 0.0 0.00 0.00 0.00 67 1014.9
20260510073230 17 72 0.0 0.0 0.00 0.00 0.00 69 1015.1
20260510072726 16 285 0.0 0.0 0.00 0.00 0.00 69 1015.0
20260510072223 16 259 0.0 0.0 0.00 0.00 0.00 71 1015.0
20260510071720 16 245 0.0 0.0 0.00 0.00 0.00 74 1014.8
20260510071216 16 353 0.0 0.0 0.00 0.00 0.00 73 1014.9
20260510070714 16 313 0.0 0.0 0.00 0.00 0.00 74 1015.0
20260510070211 16 273 0.0 0.0 0.00 0.00 0.00 72 1014.8
20260510065706 16 275 0.0 0.0 0.00 0.00 0.00 71 1015.0
20260510065203 16 278 0.0 0.0 0.00 0.00 0.00 72 1015.2
20260510064659 17 255 0.0 0.0 0.00 0.00 0.00 71 1015.0
20260510064157 17 270 0.0 0.0 0.00 0.00 0.00 69 1015.0
20260510063654 17 283 0.0 0.0 0.00 0.00 0.00 69 1014.8
20260510063150 17 259 0.0 0.0 0.00 0.00 0.00 67 1015.0
20260510062646 18 269 0.0 0.0 0.00 0.00 0.00 65 1014.9
20260510062142 18 268 0.0 0.0 0.00 0.00 0.00 66 1014.8
20260510061637 18 318 0.0 0.0 0.00 0.00 0.00 61 1014.7
20260510061135 19 250 0.0 0.0 0.00 0.00 0.00 59 1014.6
20260510060632 19 240 0.0 0.0 0.00 0.00 0.00 59 1014.6
20260510060128 19 250 0.0 0.0 0.00 0.00 0.00 59 1014.5
20260510055624 20 240 0.0 0.0 0.00 0.00 0.00 59 1014.9
20260510055123 20 241 0.0 0.0 0.00 0.00 0.00 58 1014.8
20260510054617 20 245 0.0 0.0 0.00 0.00 0.00 60 1014.7
20260510054112 20 248 0.0 0.0 0.00 0.00 0.00 60 1014.7
20260510053606 20 238 0.0 0.0 0.00 0.00 0.00 60 1014.7
20260510053104 20 243 0.0 0.0 0.00 0.00 0.00 60 1014.8
20260510052600 20 235 0.0 0.0 0.00 0.00 0.00 60 1014.8
20260510052056 20 238 0.0 0.0 0.00 0.00 0.00 60 1014.7
20260510051551 20 232 0.0 0.0 0.00 0.00 0.00 61 1014.6
20260510051048 19 224 0.0 0.0 0.00 0.00 0.00 61 1014.7
20260510050540 19 237 0.0 0.0 0.00 0.00 0.00 63 1014.6
20260510050037 20 241 0.0 0.0 0.00 0.00 0.00 62 1014.7
20260510045535 20 109 1.6 4.8 0.00 0.00 0.00 60 1014.4
20260510045030 20 242 0.0 0.0 0.00 0.00 0.00 58 1014.4
20260510044527 20 237 0.0 0.0 0.00 0.00 0.00 58 1014.5
20260510044025 20 237 0.0 0.0 0.00 0.00 0.00 59 1014.4
20260510043520 19 244 0.0 0.0 0.00 0.00 0.00 60 1014.5
20260510043015 19 268 0.0 0.0 0.00 0.00 0.00 64 1014.6
20260510042510 19 254 0.0 0.0 0.00 0.00 0.00 62 1014.5
20260510042005 18 252 0.0 0.0 0.00 0.00 0.00 64 1014.4
20260510041503 18 263 0.0 0.0 0.00 0.00 0.00 67 1014.5
20260510041000 18 268 0.0 0.0 0.00 0.00 0.00 68 1014.7
20260510040456 17 260 0.0 0.0 0.00 0.00 0.00 70 1014.5
20260510035952 18 267 0.0 0.0 0.00 0.00 0.00 70 1014.2
20260510035449 18 118 0.0 0.0 0.00 0.00 0.00 69 1014.1
20260510034948 18 118 0.0 0.0 0.00 0.00 0.00 68 1014.1
20260510034448 18 111 0.0 0.0 0.00 0.00 0.00 67 1014.0
20260510033943 18 142 0.0 0.0 0.00 0.00 0.00 66 1014.1
20260510033439 19 135 0.0 0.0 0.00 0.00 0.00 62 1014.0
20260510032937 20 123 0.0 0.0 0.00 0.00 0.00 60 1013.9
20260510032434 20 268 0.0 0.0 0.00 0.00 0.00 57 1013.8
20260510031928 20 269 0.0 0.0 0.00 0.00 0.00 57 1013.9
20260510031424 19 268 0.0 0.0 0.00 0.00 0.00 59 1013.7
20260510030920 19 283 0.0 0.0 0.00 0.00 0.00 63 1013.7
20260510030416 19 279 0.0 0.0 0.00 0.00 0.00 63 1013.7
20260510025914 19 348 0.0 0.0 0.00 0.00 0.00 63 1013.7
20260510025411 19 347 0.0 0.0 0.00 0.00 0.00 62 1013.5
20260510024908 19 348 0.0 0.0 0.00 0.00 0.00 63 1013.5
20260510024404 19 347 0.0 0.0 0.00 0.00 0.00 64 1013.7
20260510023900 19 22 0.0 0.0 0.00 0.00 0.00 64 1013.3
20260510023357 19 70 0.0 0.0 0.00 0.00 0.00 63 1013.1
20260510022854 19 88 0.0 0.0 0.00 0.00 0.00 63 1012.9
20260510022353 20 90 0.0 0.0 0.00 0.00 0.00 62 1012.8
20260510021852 20 76 0.0 0.0 0.00 0.00 0.00 60 1012.9
20260510021350 20 10 0.0 0.0 0.00 0.00 0.00 59 1012.9
20260510020847 21 275 0.0 0.0 0.00 0.00 0.00 58 1012.8
20260510020347 21 259 0.0 0.0 0.00 0.00 0.00 56 1012.8
20260510015842 21 253 0.0 0.0 0.00 0.00 0.00 53 1012.4
20260510015339 21 257 0.0 0.0 0.00 0.00 0.00 53 1012.4
20260510014834 21 254 0.0 0.0 0.00 0.00 0.00 53 1012.4
20260510014331 21 254 0.0 0.0 0.00 0.00 0.00 54 1012.1
20260510013827 21 254 0.0 0.0 0.00 0.00 0.00 55 1012.2
20260510013323 21 261 0.0 0.0 0.00 0.00 0.00 57 1012.0
20260510012818 21 259 0.0 0.0 0.00 0.00 0.00 55 1011.7
20260510012318 22 261 0.0 0.0 0.00 0.00 0.00 55 1012.0
20260510011813 22 259 0.0 0.0 0.00 0.00 0.00 55 1012.0
20260510011309 22 255 0.0 0.0 0.00 0.00 0.00 51 1012.0
20260510010806 23 254 0.0 0.0 0.00 0.00 0.00 51 1011.7
20260510010303 23 254 0.0 0.0 0.00 0.00 0.00 50 1011.7
20260510005759 23 256 0.0 0.0 0.00 0.00 0.00 49 1011.6
20260510005255 23 251 0.0 0.0 0.00 0.00 0.00 48 1011.6
20260510004754 24 252 0.0 0.0 0.00 0.00 0.00 47 1011.4
20260510004251 24 253 0.0 0.0 0.00 0.00 0.00 47 1011.5
20260510003748 24 249 0.0 0.0 0.00 0.00 0.00 46 1011.4
20260510003245 25 260 0.0 0.0 0.00 0.00 0.00 45 1011.7
20260510002743 25 257 0.0 0.0 0.00 0.00 0.00 44 1011.4
20260510002241 25 257 0.0 0.0 0.00 0.00 0.00 43 1011.4
20260510001737 25 255 0.0 0.0 0.00 0.00 0.00 42 1011.4
20260510001236 25 260 0.0 0.0 0.00 0.00 0.00 42 1011.3
20260510000732 25 260 0.0 0.0 0.00 0.00 0.00 42 1011.4
20260510000229 25 266 0.0 0.0 0.00 0.00 0.00 41 1011.3
20260509235726 26 251 0.0 0.0 0.00 0.00 0.00 39 1011.6
20260509235222 27 260 0.0 0.0 0.00 0.00 0.00 38 1011.5
20260509234718 27 261 0.0 0.0 0.00 0.00 0.00 38 1011.5
20260509234216 27 262 0.0 0.0 0.00 0.00 0.00 38 1011.5
20260509233714 27 264 0.0 0.0 0.00 0.00 0.00 38 1011.3
20260509233211 27 266 0.0 0.0 0.00 0.00 0.00 35 1011.4
20260509232707 28 260 0.0 0.0 0.00 0.00 0.00 35 1011.6
20260509232204 27 294 0.0 0.0 0.00 0.00 0.00 34 1011.4
20260509231700 27 284 0.0 0.0 0.00 0.00 0.00 33 1011.3
20260509231158 28 281 1.6 1.6 0.00 0.00 0.00 34 1011.6
20260509230655 28 264 0.0 0.0 0.00 0.00 0.00 33 1011.4
20260509230152 28 278 0.0 0.0 0.00 0.00 0.00 32 1011.2
20260509225647 28 271 0.0 0.0 0.00 0.00 0.00 34 1011.4
20260509225143 28 279 0.0 0.0 0.00 0.00 0.00 34 1011.4
20260509224639 27 245 0.0 0.0 0.00 0.00 0.00 34 1011.7
20260509224136 27 227 0.0 0.0 0.00 0.00 0.00 36 1011.5
20260509223632 28 63 0.0 0.0 0.00 0.00 0.00 34 1011.5
20260509223130 27 260 0.0 0.0 0.00 0.00 0.00 35 1011.3
20260509222627 27 247 0.0 0.0 0.00 0.00 0.00 36 1011.5
20260509222122 28 247 0.0 0.0 0.00 0.00 0.00 37 1011.4
20260509221618 28 258 0.0 0.0 0.00 0.00 0.00 35 1011.3
20260509221114 28 254 0.0 0.0 0.00 0.00 0.00 35 1011.4
20260509220610 28 243 0.0 0.0 0.00 0.00 0.00 33 1011.5
20260509220107 29 7 0.0 0.0 0.00 0.00 0.00 32 1011.5
20260509215602 29 357 0.0 0.0 0.00 0.00 0.00 32 1011.6
20260509215100 28 260 0.0 0.0 0.00 0.00 0.00 32 1011.5
20260509214557 28 282 1.6 4.8 0.00 0.00 0.00 30 1011.7
20260509214053 28 277 0.0 0.0 0.00 0.00 0.00 31 1011.5
20260509213549 28 293 0.0 0.0 0.00 0.00 0.00 35 1011.6
20260509213046 28 259 0.0 0.0 0.00 0.00 0.00 34 1011.6
20260509212543 29 255 0.0 0.0 0.00 0.00 0.00 33 1011.7
20260509212040 28 275 0.0 0.0 0.00 0.00 0.00 37 1012.0
20260509211536 28 275 0.0 0.0 0.00 0.00 0.00 35 1011.7
20260509211033 28 253 0.0 0.0 0.00 0.00 0.00 36 1011.4
20260509210530 29 262 0.0 0.0 0.00 0.00 0.00 35 1011.7
20260509210026 28 276 0.0 0.0 0.00 0.00 0.00 36 1011.6
20260509205520 28 276 0.0 0.0 0.00 0.00 0.00 34 1011.7
20260509205016 28 288 0.0 1.6 0.00 0.00 0.00 33 1011.9
20260509204512 28 269 0.0 0.0 0.00 0.00 0.00 34 1012.0
20260509204009 28 277 0.0 0.0 0.00 0.00 0.00 36 1011.9